YAOGAN-41
Last updated on Tue Sep 22 2026 00:03:16 GMT+0000 (Coordinated Universal Time)
1 58582U 23197A 26264.58475110 -.00000367 00000+0 00000+0 0 9996
2 58582 2.9633 314.8009 0013717 211.6299 167.7337 1.00271141 10290
Next 0 passes for location: London (51.5072 / 0.1276)
No passes found over London.